{"data":{"norad_id":63655,"intl_designator":"2025-083X","name":"STARLINK-33873","alt_names":[],"object_type":"PAYLOAD","status":"ACTIVE","operator":null,"country":"US","launch_date":"2025-04-25","launch_site_code":"AFETR","launch_vehicle":null,"mission":null,"orbit_class":"UNKNOWN","rcs_meters":null,"size_class":null,"mass_kg":null,"dimensions":null,"purposes":["comms"],"wikipedia_slug":null,"has_3d_model":false,"image_url":null,"decayed_at":null,"tle_current":{"epoch":"2026-09-20T22:15:13.647456Z","epoch_age_seconds":115737,"freshness":"FRESH","line1":"1 63655U 25083X   26263.92724129  .00007669  00000+0  28788-3 0  9991","line2":"2 63655  42.9958 342.8028 0000643  67.5554 292.5365 15.27581821 79958","mean_motion":15.27581821,"eccentricity":6.43e-5,"inclination_deg":42.9958,"raan_deg":342.8028,"arg_perigee_deg":67.5554,"mean_anomaly_deg":292.5365,"bstar":0.00028788,"rev_number":7995,"period_min":94.26663634013,"perigee_km":482.6024694006,"apogee_km":483.48481723133,"semimajor_km":6861.180643316,"source":"CELESTRAK","updated_at":"2026-09-21T09:00:35.055271Z"}}}